Regional Weather Roundup
Issued by NWS

Home | Current Version | Previous Version | Text Only | Print | Product List | Glossary Off
Versions: 1 2 3 4 5 6 7 8 9 10 11 12 13 14 15 16 17 18 19 20 21 22 23 24 25 26 27 28 29 30 31 32 33 34 35 36 37 38 39 40 41 42 43 44 45 46 47 48 49 50

000
ASUS43 KLMK 051902
RWRKY
KENTUCKY REGIONAL WEATHER ROUNDUP
NATIONAL WEATHER SERVICE LOUISVILLE KY
300 PM EDT SUN JUL 05 2015

NOTE "FAIR" INDICATES FEW OR NO CLOUDS BELOW 12,000 FEET
WITH NO SIGNIFICANT WEATHER AND/OR OBSTRUCTIONS TO VISIBILITY.

KYZ001>023-026-027-061>063-070>075-052000-
WESTERN AND SOUTH CENTRAL KENTUCKY

CITY           SKY/WX    TMP DP  RH WIND       PRES   REMARKS
PADUCAH        MOSUNNY   84  64  50 W6        30.08S
HENDERSON      MOSUNNY   84  70  61 CALM      30.04F
OWENSBORO      PTSUNNY   83  69  62 E5        30.07S
HOPKINSVILLE   PTSUNNY   82  67  60 W10       30.07F
BOWLING GREEN  CLOUDY    82  69  64 NE3       30.07F
GLASGOW        NOT AVBL
$$

KYZ024-025-028>034-038-045-046-053-052000-
NORTH CENTRAL KENTUCKY

CITY           SKY/WX    TMP DP  RH WIND       PRES   REMARKS
LOUISVILLE/SDF CLOUDY    78  67  68 N7        30.07S
LOUISVILLE/LOU CLOUDY    77  66  68 N5        30.08S
FORT KNOX      CLOUDY    77  67  70 N7        30.07S
$$

KYZ035>037-039>044-047>052-055>060-089>105-052000-
NORTHEAST KENTUCKY

CITY           SKY/WX    TMP DP  RH WIND       PRES   REMARKS
LEXINGTON      CLOUDY    75  67  76 NE7       30.09S
COVINGTON      CLOUDY    77  59  53 E7        30.09S
FRANKFORT      CLOUDY    77  64  64 N6        30.08R
$$

KYZ054-064>069-076>088-106>120-052000-
SOUTHEAST KENTUCKY

CITY           SKY/WX    TMP DP  RH WIND       PRES   REMARKS
JACKSON        LGT RAIN  71  68  90 VRB5      30.08F
LONDON         CLOUDY    69  64  84 N7        30.08S
SOMERSET       NOT AVBL
MIDDLESBORO    RAIN      73  68  83 SW9       30.06F
MONTICELLO     MOCLDY    76  70  82 NW8       30.11S
$$



USA.gov is the U.S. government's official web portal to all federal, state and local government web resources and services.